Location: Altenst�hlen
(53.5567°N, 8.9425°E)
Time: 04:19:51
(UTC+00:00)

STARLINK-42 - Pass Details

Date: 23 October 2019
Orbit: 548 x 551 km, 53.0° (Epoch: 17 November)

Event Time Altitude Azimuth Distance (km) Brightness Sun altitude
Rises 17:51:36 0° 277° (W) 2,720 9.0 -15.6°
Reaches altitude 10° 17:53:51 10° 276° (W) 1,826 7.6 -15.9°
Maximum altitude 17:57:59 75° 192° (SSW) 573 3.6 -16.5°
Enters shadow 17:59:43 34° 112° (ESE) 926 4.2 -16.8°
